User: anonymous   Login
Location: Marsån
(66.4167°N, 22.2833°E)
Time: 18:25:00
(UTC+00:00)
Language:

Cosmos 2084 - Orbit

View from above orbital plane
View from above orbital plane
View from above satellite
View from above satellite

Ground track
Ground track

The orbit data is extracted from the following two-line orbital elements,

1 20663U 90055A   24146.88029979  .00005440  00000-0  41054-3 0  9995
2 20663  62.7927  31.8381 0114379 118.0791 243.1926 14.98513627838235
Epoch (UTC): 25 May 2024 21:07:37
Eccentricity: 0.0114379
inclination: 62.7927°
perigee height: 492 km
apogee height: 651 km
right ascension of ascending node: 31.8381°
argument of perigee: 118.0791°
revolutions per day: 14.98513627
mean anomaly at epoch: 243.1926°
orbit number at epoch: 83823

The dashed part of the orbit path shows where the satellite is in the earth's shadow,  

DLR